Location: Lac Lasalle
(46.0398°N, 74.1576°W)
Time: 07:00:49
(UTC-05:00)

SEEDS - Pass Details

Date: 17 December 2019
Orbit: 586 x 603 km, 97.5° (Epoch: 17 January)

Event Time Altitude Azimuth Distance (km) Brightness Sun altitude
Rises 04:49:40 0° 27° (NNE) 2,857 ? -27.3°
Reaches altitude 10° 04:52:23 10° 45° (NE) 1,951 ? -26.8°
Maximum altitude 04:55:28 19° 92° (E) 1,435 ? -26.3°
Drops below altitude 10° 04:58:32 10° 139° (SE) 1,944 ? -25.7°
Sets 05:01:13 0° 157° (SSE) 2,842 ? -25.3°
